Weather History for Raleigh-Durham Airport, NC

Change the Weather History Date:

Tuesday, April 15, 2014

  Actual Average Record
Temperature  
Mean Temperature 55 °F 60 °F  
Max Temperature 71 °F 72 °F 92 °F (1941)
Min Temperature 39 °F 48 °F 27 °F (1950)
Degree Days  
Heating Degree Days 10 6  
Month to date heating degree days 63 118  
Since 1 July heating degree days 3347 3114  
Cooling Degree Days 0 2  
Month to date cooling degree days 22 17  
Year to date cooling degree days 22 29  
Growing Degree Days 6 (Base 50)    
Moisture  
Dew Point 55 °F    
Average Humidity 77    
Maximum Humidity 89    
Minimum Humidity 65    
Precipitation  
Precipitation 1.32 in 0.10 in 2.22 in (1983)
Month to date precipitation 2.85 1.53  
Year to date precipitation 12.87 12.37  
Snow  
Snow 0.00 in 0.00 in T in (1928)
Month to date snowfall 0.0 0.1  
Since 1 July snowfall 5.8 6.1  
Snow Depth 0.00 in    
Sea Level Pressure  
Sea Level Pressure 29.75 in    
Wind  
Wind Speed 11 mph (SW)    
Max Wind Speed 25 mph    
Max Gust Speed 37 mph    
Visibility 7 miles    
Events Rain , Thunderstorm    
T = Trace of Precipitation, MM = Missing Value Source: NWS Daily Summary

Daily Weather History Graph

Daily Weather History Graph

Search for Another Location

Airport:

Trip Planner

Search our weather history database for the weather conditions in past years. The results will help you decide how hot, cold, wet, or windy it might be!

Date:

Astronomy

Apr. 15, 2014 Rise Set
Actual Time 6:42 AM EDT 7:48 PM EDT
Civil Twilight 6:15 AM EDT 8:15 PM EDT
Nautical Twilight 5:44 AM EDT 8:46 PM EDT
Astronomical Twilight 5:11 AM EDT 9:19 PM EDT
Moon 8:26 PM EDT (4/15) 6:49 AM EDT (4/15)
Length of Visible Light 13h 59m
Length of Day
13h 06m
Full, 100% of the Moon is Illuminated
Apr 15
Full
Apr 22
Last Quarter
Apr 29
New
May 6
First Quarter
May 14
Full

Hourly Weather History & Observations

Time (EDT) Temp. Windchill Dew Point Humidity Pressure Visibility Wind Dir Wind Speed Gust Speed Precip Events Conditions
12:51 AM 66.9 °F - 62.1 °F 84% 29.83 in 10.0 mi South 12.7 mph - N/A   Mostly Cloudy
1:51 AM 66.2 °F - 62.6 °F 88% 29.83 in 10.0 mi SSW 9.2 mph 18.4 mph N/A   Mostly Cloudy
2:51 AM 68.0 °F - 63.0 °F 84% 29.79 in 10.0 mi South 13.8 mph 23.0 mph N/A   Mostly Cloudy
3:51 AM 68.0 °F - 64.0 °F 87% 29.76 in 7.0 mi South 9.2 mph 20.7 mph 0.05 in Rain Light Rain
4:51 AM 68.0 °F - 64.9 °F 90% 29.71 in 10.0 mi South 11.5 mph 18.4 mph 0.03 in Rain Light Rain
5:40 AM 69.8 °F - 64.4 °F 83% 29.71 in 1.0 mi South 16.1 mph 20.7 mph 0.06 in Rain Heavy Rain
5:51 AM 68.0 °F - 64.9 °F 90% 29.71 in 3.0 mi SSW 12.7 mph 20.7 mph 0.22 in Rain Rain
6:06 AM 69.8 °F - 64.4 °F 83% 29.72 in 5.0 mi SSW 15.0 mph - 0.07 in Rain , Thunderstorm Light Thunderstorms and Rain
6:21 AM 69.8 °F - 66.2 °F 88% 29.72 in 1.5 mi SSW 15.0 mph 21.9 mph 0.14 in Rain , Thunderstorm Thunderstorms and Rain
6:26 AM 68.0 °F - 66.2 °F 94% 29.71 in 0.8 mi SSW 13.8 mph 21.9 mph 0.21 in Rain , Thunderstorm Heavy Thunderstorms and Rain
6:34 AM 68.0 °F - 66.2 °F 94% 29.73 in 2.0 mi SW 15.0 mph - 0.30 in Rain , Thunderstorm Thunderstorms and Rain
6:42 AM 68.0 °F - 64.4 °F 88% 29.73 in 5.0 mi WSW 17.3 mph 26.5 mph 0.33 in Rain , Thunderstorm Light Thunderstorms and Rain
6:51 AM 66.0 °F - 63.0 °F 90% 29.74 in 2.0 mi West 21.9 mph 29.9 mph 0.43 in Rain , Thunderstorm Thunderstorms and Rain
7:17 AM 64.4 °F - 60.8 °F 88% 29.74 in 6.0 mi SW 15.0 mph - 0.22 in Rain , Thunderstorm Light Thunderstorms and Rain
7:29 AM 64.4 °F - 62.6 °F 94% 29.73 in 10.0 mi SW 10.4 mph - 0.22 in   Overcast
7:51 AM 66.0 °F - 62.1 °F 87% 29.73 in 10.0 mi SSW 9.2 mph - 0.22 in   Overcast
8:51 AM 66.0 °F - 62.1 °F 87% 29.72 in 10.0 mi SSW 6.9 mph - N/A   Overcast
9:51 AM 66.9 °F - 62.1 °F 84% 29.70 in 10.0 mi South 8.1 mph - N/A   Overcast
10:51 AM 68.0 °F - 62.1 °F 81% 29.72 in 10.0 mi SSW 15.0 mph - 0.00 in   Overcast
11:51 AM 68.0 °F - 62.1 °F 81% 29.72 in 10.0 mi SW 13.8 mph - 0.00 in Rain Light Rain
12:51 PM 69.8 °F - 64.4 °F 83% 29.69 in 10.0 mi SSW 8.1 mph - N/A Rain Light Rain
1:51 PM 68.0 °F - 62.6 °F 83% 29.68 in 3.0 mi WSW 9.2 mph - N/A Rain Rain
2:21 PM 68.0 °F - 64.4 °F 88% 29.66 in 8.0 mi SW 9.2 mph - 0.04 in Rain Light Rain
2:51 PM 69.1 °F - 62.1 °F 78% 29.64 in 10.0 mi SW 12.7 mph - 0.04 in   Overcast
3:10 PM 69.8 °F - 62.6 °F 78% 29.64 in 10.0 mi SSW 13.8 mph 21.9 mph N/A   Overcast
3:51 PM 69.8 °F - 62.6 °F 78% 29.60 in 10.0 mi South 13.8 mph 24.2 mph N/A   Overcast
4:51 PM 70.0 °F - 62.1 °F 76% 29.60 in 10.0 mi SW 17.3 mph 24.2 mph N/A   Overcast
5:12 PM 57.2 °F - 50.0 °F 77% 29.66 in 10.0 mi NNW 17.3 mph 36.8 mph N/A   Overcast
5:51 PM 48.9 °F - 44.1 °F 83% 29.69 in 5.0 mi North 9.2 mph 31.1 mph 0.00 in Rain Light Rain
6:09 PM 48.2 °F - 42.8 °F 82% 29.71 in 6.0 mi NNW 11.5 mph 25.3 mph 0.01 in Rain Light Rain
6:33 PM 46.4 °F 43.5 °F 44.6 °F 93% 29.73 in 3.0 mi Variable 5.8 mph - 0.07 in Rain Light Rain
6:51 PM 46.0 °F 42.5 °F 43.0 °F 89% 29.75 in 3.0 mi North 6.9 mph - 0.11 in Rain Rain
6:58 PM 46.4 °F 42.9 °F 42.8 °F 87% 29.76 in 2.0 mi Variable 6.9 mph - 0.04 in Rain Rain
7:10 PM 46.4 °F 41.5 °F 42.8 °F 87% 29.78 in 3.0 mi NNW 10.4 mph - 0.07 in Rain Light Rain
7:26 PM 46.4 °F 43.5 °F 42.8 °F 87% 29.79 in 2.0 mi Variable 5.8 mph 19.6 mph 0.10 in Rain Light Rain
7:43 PM 44.6 °F 40.2 °F 42.8 °F 93% 29.78 in 3.0 mi North 8.1 mph - 0.16 in Rain Light Rain
7:51 PM 45.0 °F 39.7 °F 41.0 °F 86% 29.79 in 3.0 mi North 10.4 mph 20.7 mph 0.17 in Rain Light Rain
8:51 PM 43.0 °F 37.7 °F 37.9 °F 82% 29.86 in 10.0 mi North 9.2 mph - 0.03 in   Mostly Cloudy
9:24 PM 42.8 °F 39.3 °F 35.6 °F 76% 29.90 in 10.0 mi NNW 5.8 mph - N/A   Mostly Cloudy
9:51 PM 43.0 °F 38.8 °F 36.0 °F 76% 29.93 in 10.0 mi Variable 6.9 mph - N/A   Mostly Cloudy
10:51 PM 42.1 °F 37.7 °F 33.1 °F 70% 29.98 in 10.0 mi Variable 6.9 mph 21.9 mph N/A   Scattered Clouds
11:51 PM 41.0 °F 35.2 °F 30.0 °F 65% 30.02 in 10.0 mi NNW 9.2 mph - N/A   Partly Cloudy